Regional Weather Roundup
Issued by NWS

Home | Current Version | Previous Version | Text Only | Print | Product List | Glossary Off
Versions: 1 2 3 4 5 6 7 8 9 10 11 12 13 14 15 16 17 18 19 20 21 22 23 24 25 26 27 28 29 30 31 32 33 34 35 36 37 38 39 40 41 42 43 44 45 46 47 48 49 50

393
ASUS45 KABQ 280901
RWRNM
NEW MEXICO REGIONAL WEATHER ROUNDUP
NATIONAL WEATHER SERVICE ALBUQUERQUE NM
200 AM MST TUE FEB 28 2017

NOTE: "FAIR" MEANS FEW OR NO CLOUDS BELOW 12,000 FEET AGL WITH NO
       SIGNIFICANT WEATHER OR OBSTRUCTIONS TO VISION.

      THIS PRODUCT IS RELEASED AS TWO VERSIONS.  ONE VERSION NEAR
      THE TOP OF THE HOUR CONTAINING PRELIMINARY DATA FROM ALBUQUERQUE
      AND OTHER STATIONS.  A FINAL VERSION WITH ADDITIONAL DATA IS
      ISSUED ABOUT 10 MINUTES AFTER THE HOUR.

NMZ501-503-504-510>518-281000-
NORTHWEST PLATEAU/NORTHCENTRAL MOUNTAINS

CITY           SKY/WX    TMP DP  RH WIND       PRES   REMARKS
FARMINGTON     LGT RAIN  37  35  92 S14       29.75F WCI  28
LOS ALAMOS     CLOUDY    35  35 100 S7        29.83F WCI  29
SANTA FE       CLOUDY    39  33  79 SE10      29.83F WCI  32
TAOS             N/A     34  25  69 S10G16    29.81F WCI  26
ANGEL FIRE     LGT SNOW  31  28  89 S9G16     29.80F WCI  23

$$
NMZ402-403-502-505>509-281000-
WESTCENTRAL MOUNTAINS/SOUTHWEST MOUNTAINS

CITY           SKY/WX    TMP DP  RH WIND       PRES   REMARKS
GALLUP         LGT SNOW  33  32  96 SW7       29.82S FOG     WCI  27
GRANTS         DRIZZLE   39  34  80 S20G29    29.84F WCI  30
SILVER CITY    FAIR      45  34  65 NW6       29.96S

$$
NMZ407-409-411-412-281000-
SOUTHERN DESERTS

CITY           SKY/WX    TMP DP  RH WIND       PRES   REMARKS
DEMING         FAIR      53  30  41 SW8       29.94R
LAS CRUCES     FAIR      53  26  35 SW9       29.95S
HOLLOMAN AFB   FAIR      55  31  38 SE16      29.94S
ALAMOGORDO     FAIR      57  28  33 S20       29.93S
T OR C         FAIR      52  33  48 S13       29.89R

$$
NMZ519>523-281000-
CENTRAL VALLEYS/CENTRAL HIGHLANDS

CITY           SKY/WX    TMP DP  RH WIND       PRES   REMARKS
ALBUQUERQUE    CLOUDY    48  28  46 S16       29.84S
DOUBLE EAGLE   MOCLDY    43  28  55 S14       29.83F
MORIARTY ARPT  CLOUDY    47  27  44 SW21      29.86F
CLINES CORNERS CLOUDY    42  25  50 SW28G38   29.86F
BELEN          CLOUDY    49  31  50 SW12G17   29.87S
SOCORRO        FAIR      51  31  46 NE7       29.85R

$$
NMZ524>526-539-540-281000-
SOUTHCENTRAL MOUNTAINS

CITY           SKY/WX    TMP DP  RH WIND       PRES   REMARKS
RUIDOSO        NOT AVBL

$$
NMZ527>531-281000-
NORTHEAST HIGHLANDS/NORTHEAST PLAINS

CITY           SKY/WX    TMP DP  RH WIND       PRES   REMARKS
LAS VEGAS      MOCLDY    35  30  82 SW21G31   29.81F WCI  24
RATON          FAIR      32  20  61 W9        29.75R WCI  24
CLAYTON        FAIR      50  31  48 SW30G45   29.71F

$$
NMZ532>537-281000-
EASTCENTRAL PLAINS

CITY           SKY/WX    TMP DP  RH WIND       PRES   REMARKS
TUCUMCARI      MOCLDY    52  22  30 SW10      29.78S
CANNON AFB     CLOUDY    50  25  37 SW13      29.84S
CLOVIS AIRPORT FAIR      48  25  40 SW12      29.84S

$$
NMZ028-029-538-281000-
SOUTHEAST PLAINS

CITY           SKY/WX    TMP DP  RH WIND       PRES   REMARKS
ROSWELL        FAIR      62  26  25 SW22G31     N/A
ARTESIA        FAIR      57  32  38 SW18      29.87S
CARLSBAD       FAIR      65  31  28 SW21G26   29.87F
HOBBS          FAIR      55  23  28 SW7       29.91S


$$




USA.gov is the U.S. government's official web portal to all federal, state and local government web resources and services.